Regional Weather Roundup
Issued by NWS

Home | Current Version | Previous Version | Graphics & Text | Print | Product List | Glossary On
Versions: 1 2 3 4 5 6 7 8 9 10 11 12 13 14 15 16 17 18 19 20 21 22 23 24 25 26 27 28 29 30 31 32 33 34 35 36 37 38 39 40 41 42 43 44 45 46 47 48 49 50
000
ASUS43 KTOP 070759
RWRKS

WEATHER ROUNDUP FOR KANSAS
NATIONAL WEATHER SERVICE GOODLAND KS
300 AM CDT TUE JUL 07 2015

NOTE:  "FAIR" INDICATES FEW OR NO CLOUDS BELOW 12,000 FEET WITH NO
SIGNIFICANT WEATHER AND/OR OBSTRUCTIONS TO VISIBILITY.

KSZ001>006-013>018-027>032-041>047-070900-
NORTHWEST KANSAS

CITY           SKY/WX    TMP DP  RH WIND       PRES   REMARKS
GOODLAND       CLOUDY    60  53  77 E5        30.22F
HAYS           CLOUDY    66  54  63 N14       30.12S
HILL CITY      PTCLDY    61  55  81 N10       30.16S HAZE
RUSSELL        CLOUDY    67  59  75 N13       30.09S HAZE
$$

KSZ061>065-074>080-084>089-070900-
SOUTHWEST KANSAS

CITY           SKY/WX    TMP DP  RH WIND       PRES   REMARKS
DODGE CITY     CLOUDY    67  56  67 N16       30.11S HAZE
ELKHART          N/A     66  51  58 N9          N/A
GARDEN CITY    CLOUDY    64  54  69 NE15      30.15S HAZE
GREAT BEND     CLOUDY    68  57  68 N14       30.09S
LIBERAL        CLOUDY    66  57  72 N10       30.13F
$$

KSZ066>073-081>083-090>101-070900-
SOUTHEAST KANSAS

CITY           SKY/WX    TMP DP  RH WIND       PRES   REMARKS
CHANUTE        LGT RAIN  72  71  97 N5        29.94S
COFFEYVILLE    CLOUDY    72  71  97 CALM      29.94R
HUTCHINSON     CLOUDY    68  63  84 N12G24    30.02S HAZE
MEDICINE LODGE   N/A     67  66  97 N16       29.99F
NEWTON         CLOUDY    64  59  82 NE16G24   30.03S
PARSONS        CLOUDY    72  71  97 CALM      29.95R
WICHITA INTL   LGT RAIN  68  64  87 N21G29    29.99S FOG
WICHITA JABRA  RAIN      66  66 100 N15G21    29.99R FOG
WICHITA MCCONL RAIN      66  64  94 NE21      29.99R FOG
WINFIELD       CLOUDY    71  70  96 W9        29.96S
$$

KSZ007>012-019>026-033>040-048>060-102>105-070900-
NORTHEAST KANSAS

CITY           SKY/WX    TMP DP  RH WIND       PRES   REMARKS
CONCORDIA      CLOUDY    64  58  80 N14       30.08S HAZE
EMPORIA        CLOUDY    63  62  97 N16G24    29.98R FOG
LAWRENCE       RAIN      63  61  93 N8G17     30.00R FOG
MANHATTAN      CLOUDY    69  62  78 NE14G21   30.03R HAZE
OLATHE IND     CLOUDY    65  65 100 N14       29.97S FOG
OLATHE EXE     LGT RAIN  65  65 100 N21       29.95S FOG
SALINA         CLOUDY    70  61  73 N15       30.06R HAZE
TOPEKA BILLARD RAIN      63  62  97 NE6       30.01R FOG
TOPEKA FORBES  HVY RAIN  63  60  90 NE15G25   30.00S FOG
$$


USA.gov is the U.S. government's official web portal to all federal, state and local government web resources and services.